Location: Camp Crooked Creek
(37.9149°N, 85.6607°W)
Time: 15:13:22
(UTC-05:00)

Lacrosse 4 - Visible Passes

Search period start: 19 December 2014 00:00
Search period end: 29 December 2014 00:00
Orbit: 673 x 680 km, 68.0° (Epoch: 25 February)

Date Brightness Start Highest point End Pass type
(mag) Time Alt. Az. Time Alt. Az. Time Alt. Az.
19 Dec 4.2 05:04:33 14° NNE 05:05:51 15° NE 05:08:33 10° E visible
19 Dec 1.7 06:42:54 13° NNW 06:47:06 67° WSW 06:51:49 10° SSE visible
20 Dec 2.9 05:39:54 27° N 05:41:51 39° ENE 05:46:18 10° SE visible
20 Dec 3.1 07:18:46 10° WNW 07:22:20 21° WSW 07:25:52 10° SSW visible
21 Dec 4.5 04:36:58 14° ENE 04:36:58 14° ENE 04:38:48 10° E visible
21 Dec 1.6 06:15:20 33° NW 06:17:26 69° WSW 06:22:09 10° SSE visible
21 Dec 4.4 20:30:46 10° SW 20:31:22 14° SW 20:31:22 14° SW visible
22 Dec 3.0 05:12:29 37° ENE 05:12:29 37° ENE 05:16:36 10° SE visible
22 Dec 3.0 06:50:51 18° WNW 06:52:40 22° WSW 06:56:16 10° SSW visible
22 Dec 3.0 19:26:05 10° S 19:28:43 27° SSE 19:28:43 27° SSE visible
23 Dec 1.7 05:48:04 68° SW 05:48:04 68° SW 05:52:30 10° SSE visible
23 Dec 3.7 18:24:21 10° ESE 18:25:44 11° ESE 18:26:02 11° E visible
23 Dec 2.7 20:01:05 10° SSW 20:04:24 44° SW 20:04:24 44° SW visible
24 Dec 4.1 04:45:20 19° ESE 04:45:20 19° ESE 04:46:54 10° SE visible
24 Dec 3.1 06:23:43 21° WSW 06:23:43 21° WSW 06:26:39 10° SSW visible
24 Dec 2.3 18:56:26 10° S 19:00:47 36° ESE 19:01:40 33° E visible
24 Dec 4.1 20:37:43 10° WSW 20:40:02 21° W 20:40:02 21° W visible
25 Dec 3.5 05:21:03 23° SSE 05:21:03 23° SSE 05:22:50 10° SSE visible
25 Dec 3.7 17:54:54 10° ESE 17:56:05 11° ESE 17:57:16 10° E visible
25 Dec 1.9 19:31:24 10° SSW 19:36:11 72° WNW 19:37:13 53° N visible
26 Dec 4.1 05:56:47 11° SSW 05:56:47 11° SSW 05:57:02 10° SSW visible
26 Dec 2.4 18:26:48 10° S 18:31:07 35° ESE 18:34:20 16° NE visible
26 Dec 3.6 20:08:00 10° WSW 20:11:56 25° NW 20:12:42 24° NW visible
27 Dec 1.9 19:01:44 10° SSW 19:06:30 74° WNW 19:09:44 21° NNE visible
28 Dec 2.5 17:57:10 10° S 18:01:27 34° ESE 18:05:46 10° NE visible
28 Dec 3.7 19:38:17 10° WSW 19:42:15 25° NW 19:45:03 16° N visible
